Regional Weather Roundup
Issued by NWS Grand Forks, ND

Home | Current Version | Previous Version | Graphics & Text | Print | Product List | Glossary On
Versions: 1 2 3 4 5 6 7 8 9 10 11 12 13 14 15 16 17 18 19 20 21 22 23 24 25 26 27 28 29 30 31 32 33 34 35 36 37 38 39 40 41 42 43 44 45 46 47 48 49 50
000
ASUS43 KFGF 240731
RWRFGF
PRAIRIE TO PINES  WEATHER ROUNDUP
NATIONAL WEATHER SERVICE EASTERN NORTH DAKOTA/GRAND FORKS ND
100 AM CST FRI FEB 24 2017

 **SATELLITE DATA USED TO AUGMENT SKY COVER AT AUTOMATED STATIONS**
 *****  WEATHER ACROSS EASTERN NORTH DAKOTA  *****

CITY           SKY/WX    TMP DP  RH WIND       PRES   REMARKS
GRAND FORKS    FAIR      18  10  71 N3        30.16R
GRAND FRKS AFB FAIR      15  12  90 N3        30.16R
DEVILS LAKE    FAIR      15  12  88 W6        30.13R WCI   6
FARGO          FAIR      21  12  68 N18       30.11S WCI   6
WAHPETON ARPT    N/A     21  14  73 N21       30.05F WCI   6
$$

 ***** WEATHER ACROSS CENTRAL AND WESTERN NORTH DAKOTA  *****

CITY           SKY/WX    TMP DP  RH WIND       PRES   REMARKS
BISMARCK       FAIR      18  12  77 N6        30.16R WCI  10
MINOT            N/A     20  15  81 SW8       30.13R WCI  10
JAMESTOWN      FAIR      19  16  88 N7        30.11R WCI  10
MINOT AFB      CLOUDY    21  16  81 W6        30.13R WCI  14
GARRISON         N/A     10   7  87 NW8       30.14R WCI  -2
WILLISTON      FAIR       8   5  87 CALM      30.16S
DICKINSON      FAIR      11   6  81 N6        30.09S WCI   1
HETTINGER      FAIR      16  11  80 NE8       30.10R WCI   5
$$

 *****  OTHER AIRPORT OBSERVATIONS IN OUR AREA  *****

CITY           SKY/WX    TMP DP  RH WIND       PRES   REMARKS
WALHALLA       NOT AVBL
GRAFTON AIRPOR FAIR      14  12  92 CALM      30.19R
VALLEY CITY AR CLOUDY    19  19 100 NE13      30.12F WCI   7
CANDO          NOT AVBL
CAVALIER APRT    N/A     12  10  92 CALM      30.16R
GWINNER        FAIR      23  18  80 N21       30.07F WCI   8
SHEYENNE NWR     N/A     20  12  71 NE13      29.95S WCI   7
ROLLA          CLOUDY    19  16  86 NW8       30.10S WCI   9
 ***** THE ABOVE OBSERVATIONS ARE NON NWS ARE NOT QUALITY
       CONTROLLED AND MAY MIS-REPORT RAIN FOR SNOW...
$$

  *****  WEATHER ACROSS NORTHERN MINNESOTA  *****

CITY           SKY/WX    TMP DP  RH WIND       PRES   REMARKS
FLAG ISLAND    FAIR      10   3  72 N3        30.12S
WARROAD        FAIR       7   3  85 CALM      30.14R
ROSEAU         FAIR      10   3  72 CALM      30.15R
HALLOCK        FAIR      12  10  92 CALM      30.17R
THF RVR FALLS  FAIR      15   8  73 N9        30.15R WCI   3
BAUDETTE       FAIR       9   4  80 NW8       30.10R WCI  -3
WASKISH        FAIR      12   7  79 N7        30.09S WCI   2
CROOKSTON      FAIR      18  12  79 NE8       30.16S WCI   7
STEPHEN NDAWN    N/A     14  10  85 E3          N/A
GREENBUSH NDAW   N/A      7   5  92 CALM        N/A
$$
  *****  WEATHER ACROSS CENTRAL AND WEST MINNESOTA  *****

CITY           SKY/WX    TMP DP  RH WIND       PRES   REMARKS
FOSSTON        FAIR      12   9  85 N12       30.09F WCI  -2
BEMIDJI        FAIR      14   7  76 N8        30.05F WCI   2
PARK RAPIDS    FAIR      17   7  64 N12G21    30.01F WCI   4
ELBOW LAKE     PTSUNNY   21  14  74 NE20G26   30.00R WCI   5
WADENA         FAIR      18  10  73 N12G23    29.99S WCI   5
DETROIT LAKES  FAIR      19  12  73 N13G18    30.05S WCI   7
MOORHEAD       FAIR      19  12  73 N18       30.10F WCI   4
FERGUS FALLS   FAIR      19  12  73 N18       30.06F WCI   4
MORRIS MN      CLOUDY    25  19  80 N20G25    29.97S WCI  11
STAPLES        FAIR      18  12  79 N9G17     30.00R WCI   6
$$
  *****  WEATHER ELSEWHERE ACROSS MINNESOTA  *****

CITY           SKY/WX    TMP DP  RH WIND       PRES   REMARKS
DULUTH         FAIR      20  15  81 N10       29.94F WCI   9
INTRNTL FALLS  FAIR      10   4  76 NW6       30.07S WCI   0
ELY            FAIR      16   9  73 N5        30.00S WCI   9
CLOQUET        FAIR      19  12  73 N9G18     29.95S WCI   9
WHEATON        FAIR      21  14  73 N18G29    30.04R WCI   6
BRAINERD       FAIR      20  11  68 NE16G23   29.98F WCI   6
HIBBING        FAIR      16  10  77 N12       30.00F WCI   3
ALEXANDRIA     CLOUDY    22  16  78 N17G28    29.97R WCI   8
SAINT CLOUD    FAIR      25  15  66 NE14G23   29.94S WCI  13
MINNEAPOLIS    CLOUDY    29  20  69 N16G28    29.87F WCI  17
$$

  *****  WEATHER ACROSS SOUTH DAKOTA  *****

CITY           SKY/WX    TMP DP  RH WIND       PRES   REMARKS
SIOUX FALLS    CLOUDY    27  24  89 NE26G35   29.80F FOG     WCI  12
BROOKINGS      CLOUDY    24  20  84 NE22G31   29.85F WCI   9
WATERTOWN      CLOUDY    22  17  81 N23G35    29.91F WCI   6
HURON          CLOUDY    23  18  81 N22G32    29.96R WCI   8
SISSETON         N/A     22  16  78 N23G31    30.02F WCI   6
ABERDEEN       FAIR      21  13  71 N25G32    30.04F WCI   4
MITCHELL       CLOUDY    27  22  81 N22       29.93R WCI  13
PIERRE         CLOUDY    27  20  75 N20G28    29.99S WCI  13
MOBRIDGE       CLOUDY    27  18  69 NE14      30.05R WCI  16
RAPID CITY     CLOUDY    24  20  84 N10       29.99S WCI  14
$$

  *****  SOME WEATHER IN NEARBY STATES *****

CITY           SKY/WX    TMP DP  RH WIND       PRES   REMARKS
GLASGOW MT     CLOUDY    25  18  74 E14       30.09F WCI  13
GREAT FALLS MT CLOUDY    24  22  91 NE6       29.95F WCI  17
CHEYENNE WY    LGT SNOW  13   9  84 N9        29.80S FOG     WCI   1
SCOTTSBLUFF NE CLOUDY    22  17  81 N8        29.90R WCI  12
OMAHA NE       FLURRIES  34  30  85 N20G25    29.59R WCI  23
DES MOINES IA  LGT RAIN  39  37  92 N20G25    29.59F FOG
DAVENPORT IA   CLOUDY    37  35  92 E20G25    29.53F
CHICAGO IL     TSTM      39  37  92 NE20      29.61F
EAU CLAIRE WI  HVY SNOW  29  28  96 NE10      29.84F VSB 1/4 WCI  20
LA CROSSE WI   LGT SNOW  35  32  88 N14       29.74F FOG
$$

  *****  SOME NATIONAL WEATHER *****

CITY           SKY/WX    TMP DP  RH WIND       PRES   REMARKS
LA GUARDIA NY  FAIR      56  47  71 S8        29.91R
RALEIGH NC     FAIR      54  50  86 CALM      29.93S
ATLANTA GA     FAIR      60  52  74 SE5       29.88S
NEW ORLEANS LA MOCLDY    64  63  96 SE6       29.78F
OKLAHOMA CITY  MOCLDY    45  38  76 N24       29.62R
ALBUQUERQUE NM FAIR      38  13  35 W9        29.82R
SALT LAKE CITY CLOUDY    27  24  89 NW10      29.92R WCI  17
LOS ANGELES CA FAIR      51  17  26 N7        30.10S
BOISE ID       CLOUDY    30  23  75 NW16      29.98R WCI  19
SEATTLE WA     CLOUDY    35  32  88 S7        30.18
$$

*** WEATHER ACROSS MANITOBA...SASKATCHEWAN AND ONTARIO ***
                ***ONTARIO***

CITY           SKY/WX    TMP DP  RH WIND       PRES   REMARKS
GERALDTON      PTCLDY     3  -4  72 N8        30.03S WCI -10
THUNDER BAY    PTCLDY    16   5  62 N6        30.08R WCI   7
SIOUX LOOKOUT  CLEAR      5  -2  72 CALM      30.08R
TORONTO        MOCLDY    39  34  81 NE6       29.90R
BIG TROUT LK   CLEAR     -8 -11  84 N6        30.18R WCI -21
PICKLE LAKE    NOT AVBL
DRYDEN         CLEAR      7   0  72 NE3       30.08R
KENORA         CLEAR      7   1  78 N3        30.09R
$$
                *** MANITOBA***

CITY           SKY/WX    TMP DP  RH WIND       PRES   REMARKS
BRANDON        PTCLDY    18  12  79 NW12      30.13R WCI   5
DAUPHIN        FLURRIES  16  10  79 NE9       30.19R WCI   4
ISLAND LAKE    CRYSTALS  -9 -13  84 CALM      30.22S
PILOT MOUND      N/A     19  16  86 NW2         N/A
THE PAS        MOCLDY     0  -6  78 CALM      30.22R
THOMPSON       CLEAR    -11 -15  84 VRB2      30.28R
WINNIPEG       CLOUDY    12   7  79 NE6       30.17R WCI   3
LYNN LAKE      MOCLDY   -15 -20  76 NE3       30.21S
CHURCHILL      MOCLDY   -15 -18  84 NW7       30.38F WCI -31
GILLAM         CLEAR    -13 -17  84 N5        30.32S WCI -25
$$
                ***SASKATCHEWAN***

CITY           SKY/WX    TMP DP  RH WIND       PRES   REMARKS
ESTEVAN        MOCLDY    23  19  86 W5        30.14S WCI  17
KINDERSLEY     CLOUDY    23  19  86 W3        30.06S
LLOYDMINSTER   MOCLDY    16  12  86 S7        30.05S WCI   6
PRINCE ALBERT  FLURRIES   7   5  92 E2        30.13S
REGINA         CLOUDY    25  21  86 S6        30.12S WCI  18
YORKTON        MOCLDY    14  10  85 VRB2      30.14R
N. BATTLEFORD  CLEAR     10  10 100 E3        30.12S
LA RONGE       FLURRIES   0  -4  85 N3        30.15S
SASKATOON      FLURRIES  21  16  79 E7        30.13S WCI  13
SWIFT CURRENT  CLOUDY    19  16  86 S5        30.05F WCI  13
$$
NOTE: THESE ARE AUTOMATED STATIONS WITH LIMITED QUALITY CONTROL
      "FAIR" INDICATES FEW OR NO CLOUDS BELOW 12,000 FEET WITH NO
      SIGNIFICANT WEATHER AND/OR OBSTRUCTIONS TO VISIBILITY.
      SKY/WX - SKY CONDITION AND SIGNIFICANT WEATHER.
      TMP - AIR TEMPERATURE.    DP   - DEWPOINT TEMPERATURE.
      RH  - RELATIVE HUMIDITY.  PRES - PRESSURE.
      HX  - HEAT INDEX.         WCI  - WIND CHILL INDEX.
$




USA.gov is the U.S. government's official web portal to all federal, state and local government web resources and services.